[[{"header":{"parameterUnit":"m.s-1","parameterCategory":1,"la1":30.2991,"la2":30.254,"lo1":-89.0895,"lo2":-89.0444,"dy":0.0017,"dx":0.0017,"nx":28,"ny":28,"refTime":"2025-06-11T21:00:00:Z","depth":0,"parameterNumber":2,"parameterNumberName":"U-component_of_WINDS"},"data":[0,0,0,0,0,0,0,0,0,0,0,0,0,0,0,0,0,0,0,0,0,0,0,0,0,0,0,0,0,0,0,0,0,0,0,0,0,0,0,0,0,0,0,0,0,0,0,0,0,0,0,0,0,0,0,0,0,0,-2.0207,-2.0209,0,-2.0346,-2.0348,-2.0349,-2.0379,-2.0378,-2.0377,-2.0376,-2.0521,-2.0526,-2.0531,0,0,0,0,0,0,0,0,0,0,0,0,0,-1.9972,-1.9976,-2.0207,-2.0209,-2.0211,-2.0346,-2.0348,-2.035,-2.0379,-2.0378,-2.0376,-2.0375,-2.052,-2.0525,-2.0531,0,0,0,0,0,0,0,0,0,0,0,0,0,-2.0089,-1.9977,-2.0207,-2.0241,-2.0246,-2.0345,-2.0348,-2.035,-2.0379,-2.0378,-2.0376,-2.0375,-2.0518,-2.0525,-2.0532,-2.0608,0,0,-2.0554,-2.0557,0,0,0,0,0,0,0,0,-2.0082,-2.0097,-2.0235,-2.0239,-2.0244,-2.0343,-2.0318,-2.0437,-2.038,-2.0329,-2.0376,-2.0374,-2.0464,-2.0475,-2.0505,-2.0615,-2.0621,-2.0555,-2.0559,-2.0562,-2.0564,0,0,0,0,0,0,0,-2.0074,-2.0092,-2.0262,-2.0237,-2.0243,-2.0251,-2.0266,-2.0341,-2.0403,-2.0333,-2.0335,-2.0351,-2.0466,-2.0498,-2.0508,-2.0623,-2.0555,-2.0561,-2.0566,-2.0568,-2.0803,-2.0805,0,0,0,0,0,0,-2.0059,-2.0085,-2.0258,-2.0266,-2.0158,-2.0257,-2.0274,-2.0313,-2.0402,-2.0415,-2.0352,-2.0352,-2.0486,-2.05,-2.0514,-2.0609,-2.0562,-2.0569,-2.0573,-2.0802,-2.0804,-2.0806,0,0,0,0,0,0,-2.0054,-2.0074,-2.0252,-2.0176,-2.02,-2.0263,-2.0307,-2.0317,-2.0348,-2.0417,-2.0429,-2.0373,-2.0485,-2.0503,-2.0584,-2.0614,-2.0572,-2.0579,-2.0799,-2.0802,-2.0805,-2.0799,0,0,0,0,0,0,-2.0047,-2.0072,-2.0101,-2.0177,-2.0203,-2.0319,-2.0309,-2.0321,-2.0361,-2.0361,-2.044,-2.0451,-2.0485,-2.0573,-2.0591,-2.0623,-2.0585,-2.0797,-2.0801,-2.0804,-2.0797,-2.0801,-2.0805,0,0,0,0,0,-2.0039,-2.0094,-2.0102,-2.0123,-2.024,-2.0321,-2.0336,-2.0374,-2.0363,-2.0393,-2.0437,-2.0449,-2.0608,-2.0581,-2.0602,-2.0636,-2.0795,-2.08,-2.0804,-2.0795,-2.08,-2.0805,0,0,0,0,0,0,-2.0021,-2.0105,-2.0114,-2.0196,-2.0251,-2.0326,-2.0364,-2.0378,-2.0439,-2.0437,-2.0482,-2.05,-2.0578,-2.0616,-2.0584,-2.0715,-2.0701,-2.071,-2.0687,-2.0693,-2.0697,-2.0686,-2.0591,0,0,0,0,0,-2.0027,-2.0084,-2.0154,-2.022,-2.0247,-2.0301,-2.0337,-2.0361,-2.0421,-2.0444,-2.0495,-2.0553,-2.0616,-2.0657,-2.0719,-2.0803,-2.0821,-2.0837,-2.0841,-2.0844,-2.0851,-2.0898,-2.0907,-2.082,-2.082,-2.082,0,0,-2.0039,-2.0092,-2.0125,-2.0218,-2.0263,-2.0323,-2.032,-2.0383,-2.0428,-2.0455,-2.0533,-2.0572,-2.0641,-2.0723,-2.0762,-2.0757,-2.0879,-2.0849,-2.0851,-2.0857,-2.0904,-2.0912,-2.0919,-2.0823,-2.0822,-2.0822,0,0,-2.0092,-2.0137,-2.0196,-2.0242,-2.0311,-2.0346,-2.036,-2.0433,-2.046,-2.054,-2.0561,-2.0616,-2.0724,-2.0771,-2.081,-2.0881,-2.0895,-2.09,-2.0922,-2.0968,-2.0975,-2.0981,-2.1007,-2.1015,-2.0907,-2.0907,-2.0907,0,-2.0099,-2.0188,-2.0226,-2.0288,-2.0328,-2.0354,-2.0415,-2.0458,-2.0544,-2.0571,-2.0564,-2.07,-2.0748,-2.0842,-2.086,-2.089,-2.0909,-2.0891,-2.097,-2.0977,-2.0984,-2.1009,-2.1018,-2.0907,-2.0907,-2.0907,-2.0907,0,-2.0193,-2.0255,-2.0295,-2.0376,-2.0421,-2.0482,-2.053,-2.0572,-2.0592,-2.0629,-2.0711,-2.0769,-2.0843,-2.0868,-2.0889,-2.0965,-2.096,-2.0961,-2.0948,-2.0991,-2.1016,-2.1026,-2.0908,-2.0908,-2.0908,-2.0907,0,0,-2.0238,-2.0339,-2.0353,-2.039,-2.0468,-2.0517,-2.0581,-2.0652,-2.0687,-2.0746,-2.08,-2.0891,-2.0893,-2.0937,-2.0964,-2.1004,-2.1057,-2.1,-2.1003,-2.1009,-2.1146,-2.1144,-2.1154,-2.1067,-2.1069,-2.107,-2.114,0,-2.03,-2.0412,-2.0448,-2.0542,-2.06,-2.0626,-2.0681,-2.0735,-2.0772,-2.0827,-2.0868,-2.0932,-2.0929,-2.0956,-2.0997,-2.1042,-2.1085,-2.1037,-2.1119,-2.1121,-2.11,-2.1167,-2.1165,-2.1228,-2.115,-2.1151,-2.1152,0,-2.0387,-2.0446,-2.0545,-2.0616,-2.0642,-2.069,-2.0759,-2.0812,-2.0875,-2.0898,-2.0947,-2.0971,-2.1039,-2.1022,-2.1118,-2.1084,-2.112,-2.1147,-2.1151,-2.1159,-2.1139,-2.1178,-2.1249,-2.1259,-2.1168,-2.1167,-2.1166,0,-2.041,-2.0514,-2.0587,-2.0618,-2.0703,-2.0736,-2.0773,-2.0835,-2.0875,-2.0936,-2.0964,-2.1032,-2.1069,-2.1122,-2.1165,-2.1148,-2.1256,-2.1243,-2.1279,-2.1278,-2.13,-2.1298,-2.1378,-2.1323,-2.1323,-2.1323,-2.1323,0,-2.0476,-2.0535,-2.0598,-2.0643,-2.0711,-2.0753,-2.082,-2.0859,-2.0913,-2.0967,-2.0994,-2.1044,-2.1096,-2.1154,-2.1188,-2.1262,-2.1279,-2.13,-2.1309,-2.1298,-2.1295,-2.1322,-2.1318,-2.1326,-2.1325,-2.1324,-2.1324,0,-2.0512,-2.0557,-2.0638,-2.0711,-2.0731,-2.0778,-2.0841,-2.0887,-2.0924,-2.0992,-2.101,-2.107,-2.1139,-2.1186,-2.1275,-2.1298,-2.1378,-2.1385,-2.1356,-2.136,-2.1393,-2.1389,-2.1493,-2.1509,-2.1443,-2.1444,-2.1444,0,-2.0551,-2.0597,-2.0675,-2.0712,-2.0749,-2.0809,-2.085,-2.0894,-2.0937,-2.1012,-2.1048,-2.1119,-2.1178,-2.1287,-2.1339,-2.1407,-2.1417,-2.1449,-2.1427,-2.1415,-2.1418,-2.1414,-2.1419,-2.1452,-2.1452,-2.1453,-2.1453,0,-2.0615,-2.0635,-2.0693,-2.0759,-2.0807,-2.0862,-2.0917,-2.0946,-2.1,-2.1047,-2.1117,-2.1162,-2.1253,-2.1323,-2.1396,-2.1436,-2.1454,-2.1459,-2.1471,-2.1461,-2.1442,-2.1452,-2.1365,-2.1457,-2.1456,-2.1456,-2.1456,-2.1456,-2.0654,-2.0696,-2.0757,-2.0822,-2.0867,-2.0918,-2.0964,-2.1007,-2.1066,-2.1142,-2.1165,-2.1238,-2.1301,-2.1401,-2.1442,-2.1501,-2.1498,-2.1515,-2.152,-2.1523,-2.1523,-2.1432,-2.1514,-2.1514,-2.1514,-2.1514,-2.1514,0,-2.0719,-2.076,-2.0818,-2.0894,-2.0944,-2.0955,-2.1017,-2.1059,-2.1123,-2.1179,-2.1236,-2.1317,-2.1386,-2.1443,-2.1514,-2.155,-2.156,-2.1567,-2.1565,-2.1574,-2.1521,-2.1504,-2.1558,-2.1558,-2.1558,-2.1558,-2.1558,-2.1558,-2.0759,-2.0831,-2.0858,-2.0954,-2.0995,-2.1066,-2.11,-2.1147,-2.1193,-2.1281,-2.1338,-2.1374,-2.1432,-2.1507,-2.157,-2.1586,-2.1611,-2.1616,-2.1633,-2.1583,-2.1578,-2.1573,-2.1557,-2.1621,-2.1621,-2.1681,-2.1681,-2.1682]},{"header":{"parameterUnit":"m.s-1","parameterCategory":1,"la1":30.2991,"la2":30.254,"lo1":-89.0895,"lo2":-89.0444,"dy":0.0017,"dx":0.0017,"nx":28,"ny":28,"refTime":"2025-06-11T21:00:00:Z","depth":0,"parameterNumber":3,"parameterNumberName":"V-component_of_WINDS"},"data":[0,0,0,0,0,0,0,0,0,0,0,0,0,0,0,0,0,0,0,0,0,0,0,0,0,0,0,0,0,0,0,0,0,0,0,0,0,0,0,0,0,0,0,0,0,0,0,0,0,0,0,0,0,0,0,0,0,0,4.1581,4.1582,0,4.1626,4.1626,4.1627,4.1591,4.159,4.1588,4.1587,4.1629,4.1632,4.1634,0,0,0,0,0,0,0,0,0,0,0,0,0,4.146,4.1463,4.1581,4.1582,4.1582,4.1626,4.1626,4.1627,4.1592,4.159,4.1588,4.1586,4.1628,4.1631,4.1634,0,0,0,0,0,0,0,0,0,0,0,0,0,4.1509,4.1463,4.1581,4.157,4.1569,4.1626,4.1626,4.1627,4.1592,4.159,4.1587,4.1585,4.1627,4.1631,4.1635,4.1704,0,0,4.1647,4.1648,0,0,0,0,0,0,0,0,4.1507,4.1514,4.1571,4.1571,4.157,4.1601,4.1599,4.1653,4.1592,4.1583,4.1587,4.1584,4.1621,4.1626,4.1639,4.1706,4.1707,4.1647,4.1649,4.1651,4.1652,0,0,0,0,0,0,0,4.1503,4.1512,4.1599,4.1572,4.1571,4.1561,4.1566,4.1609,4.1614,4.1584,4.1581,4.1587,4.1621,4.1635,4.164,4.1708,4.1647,4.165,4.1652,4.1654,4.1831,4.1833,0,0,0,0,0,0,4.1502,4.1509,4.1597,4.16,4.1532,4.1565,4.157,4.1593,4.1614,4.1615,4.1589,4.1586,4.163,4.1635,4.1641,4.1721,4.1651,4.1654,4.1657,4.1829,4.1832,4.1834,0,0,0,0,0,0,4.1499,4.151,4.1595,4.1554,4.1564,4.157,4.1596,4.1595,4.161,4.1618,4.1618,4.1603,4.1628,4.1636,4.1688,4.1722,4.1656,4.1659,4.1826,4.183,4.1833,4.1883,0,0,0,0,0,0,4.1496,4.1509,4.1537,4.1555,4.1567,4.1643,4.1598,4.1598,4.1617,4.1612,4.1631,4.1632,4.1627,4.1683,4.1692,4.1726,4.1662,4.1823,4.1827,4.1832,4.1878,4.1888,4.1896,0,0,0,0,0,4.1492,4.1549,4.1538,4.1549,4.1601,4.1645,4.1652,4.1646,4.162,4.1646,4.1651,4.1632,4.1717,4.1688,4.1698,4.1734,4.182,4.1826,4.1831,4.1874,4.1886,4.1896,0,0,0,0,0,0,4.1533,4.1551,4.1539,4.1604,4.1624,4.1639,4.1673,4.1659,4.1685,4.168,4.167,4.1674,4.1729,4.1737,4.1705,4.1801,4.1764,4.1772,4.1793,4.1805,4.1813,4.181,4.1666,0,0,0,0,0,4.155,4.1586,4.1599,4.1655,4.1665,4.1668,4.1687,4.168,4.1699,4.1707,4.1716,4.1734,4.1765,4.1785,4.1814,4.188,4.1882,4.1909,4.1918,4.1925,4.1931,4.1964,4.1976,4.1852,4.1852,4.1852,0,0,4.1585,4.1599,4.1622,4.1663,4.1678,4.1713,4.1675,4.1714,4.174,4.1713,4.1763,4.177,4.1789,4.1848,4.1874,4.1856,4.1966,4.1932,4.1938,4.194,4.1971,4.1983,4.1993,4.1856,4.1855,4.1855,0,0,4.1666,4.1681,4.1729,4.1744,4.1766,4.1767,4.1778,4.1796,4.18,4.185,4.183,4.186,4.1914,4.1928,4.1942,4.2028,4.201,4.2038,4.2083,4.2115,4.2125,4.2134,4.2162,4.2173,4.2044,4.2044,4.2044,0,4.1706,4.176,4.1754,4.1796,4.1813,4.1791,4.1838,4.1852,4.1883,4.1894,4.1874,4.194,4.1952,4.2013,4.2033,4.2047,4.2058,4.2035,4.2125,4.2133,4.2141,4.2168,4.2179,4.2047,4.2047,4.2047,4.2046,0,4.1807,4.1845,4.1881,4.1911,4.1933,4.1977,4.1975,4.1998,4.199,4.1992,4.2042,4.2056,4.2086,4.21,4.2092,4.2159,4.2147,4.2126,4.2089,4.2156,4.2181,4.2192,4.2052,4.2051,4.205,4.2049,0,0,4.1916,4.1942,4.1955,4.1967,4.199,4.2018,4.206,4.2091,4.2109,4.2131,4.2164,4.221,4.219,4.2206,4.22,4.2228,4.2292,4.2203,4.2203,4.2218,4.2365,4.2379,4.2391,4.2281,4.2283,4.2285,4.2362,0,4.1997,4.2071,4.2066,4.2135,4.2168,4.2147,4.2183,4.22,4.2203,4.2231,4.2234,4.2266,4.2238,4.2248,4.2275,4.2279,4.2322,4.2274,4.231,4.2312,4.2304,4.2405,4.2421,4.2493,4.2372,4.2374,4.2375,0,4.2101,4.2126,4.2199,4.2215,4.2229,4.2261,4.2288,4.2316,4.2333,4.2333,4.2351,4.234,4.238,4.2343,4.2397,4.2364,4.2379,4.2383,4.2386,4.2388,4.2346,4.2408,4.2516,4.2527,4.2391,4.239,4.2389,0,4.217,4.2223,4.2272,4.2284,4.2305,4.2328,4.2337,4.2353,4.2371,4.2394,4.2405,4.2432,4.2447,4.2467,4.2462,4.2437,4.2517,4.248,4.2516,4.2517,4.2533,4.2532,4.2644,4.2546,4.2546,4.2545,4.2545,0,4.226,4.2305,4.2303,4.2334,4.2382,4.2376,4.2423,4.243,4.2444,4.2474,4.2457,4.2485,4.2478,4.2505,4.2502,4.2546,4.2553,4.2553,4.2551,4.2554,4.2553,4.2562,4.2556,4.2548,4.2548,4.2547,4.2547,0,4.2346,4.2347,4.2399,4.2414,4.2419,4.2454,4.2466,4.2493,4.2495,4.2533,4.2541,4.2544,4.2575,4.2573,4.2608,4.2605,4.2659,4.2652,4.2653,4.2651,4.2687,4.2683,4.2807,4.2822,4.2716,4.2717,4.2718,0,4.2402,4.2436,4.2455,4.2474,4.2485,4.2516,4.2534,4.2529,4.2548,4.257,4.2595,4.2625,4.2648,4.2699,4.2703,4.2729,4.2721,4.2763,4.2725,4.2726,4.272,4.2717,4.2719,4.277,4.2771,4.2772,4.2773,0,4.2502,4.25,4.2528,4.2556,4.2578,4.26,4.2619,4.2635,4.2631,4.2654,4.2686,4.2704,4.274,4.2769,4.2793,4.2801,4.2786,4.2785,4.2794,4.2796,4.2795,4.2794,4.2672,4.2782,4.2781,4.278,4.278,4.2779,4.2573,4.2601,4.2619,4.2649,4.2663,4.2682,4.2708,4.2713,4.274,4.2769,4.2764,4.2799,4.2814,4.2846,4.2856,4.2883,4.2868,4.2882,4.2885,4.2888,4.2891,4.2792,4.2887,4.2887,4.2887,4.2887,4.2887,0,4.267,4.268,4.2709,4.2736,4.276,4.2745,4.2765,4.2785,4.2817,4.2833,4.2856,4.2892,4.292,4.2926,4.2952,4.2972,4.2966,4.2979,4.2977,4.2978,4.2904,4.2893,4.2984,4.2984,4.2984,4.2984,4.2984,4.2984,4.2723,4.277,4.277,4.2823,4.2832,4.2867,4.288,4.2895,4.2908,4.2949,4.2972,4.2976,4.2988,4.3015,4.3039,4.304,4.3049,4.3065,4.3063,4.2994,4.2984,4.2975,4.2963,4.3068,4.3068,4.3135,4.3135,4.3136]}]]